Starlink 32711

operational
NORAD ID: 62435 Int'l Des: 2024-251 Owner: SPXS Country: US Constellation: starlink
LEOCIRCULAR

About Starlink 32711

Description loading...

Live Position

Loading 3D Globe...

Upcoming Passes

Altitude History

Altitude vs Time

uPlot chart will show altitude changes over time

Two-Line Element Set

1 62435U 24251D 25351.30485813 .00019564 00000-0 67127-3 0 9993
2 62435 53.1612 358.0657 0000692 84.5012 275.6068 15.30182688 55333
Epoch: Dec 17, 2025 • Age: 29 hours

Current Status

Altitude 480.3 km
Velocity 7.63 km/s
Sub-Earth Point 48.94°N, 153.79°W
Launch Date Dec 29, 2024
Age 0.9 years
Type internet

Technical Details

Classification Payload
Mass 730.00 kg
Dry Mass 700.00 kg
Total Mass 730.00 kg
Length 0.30 m
Diameter 4.10 m
Span 29.00 m
Shape Box + pan
Manufacturer SPXS
Bus Type Starlink V2M
Phase Status In Orbit
Owner/State SPXS/US

Large Constellations

Loading constellations...